Regional Weather Roundup
Issued by NWS

Home | Current Version | Previous Version | Graphics & Text | Print | Product List | Glossary On
Versions: 1 2 3 4 5 6 7 8 9 10 11 12 13 14 15 16 17 18 19 20 21 22 23 24 25 26 27 28 29 30 31 32 33 34 35 36 37 38 39 40 41 42 43 44 45 46 47 48 49 50
280
ASUS45 KTFX 281810
RWRMT
MONTANA REGIONAL WEATHER ROUNDUP
NATIONAL WEATHER SERVICE GREAT FALLS MT
1200 PM MDT TUE MAR 28 2017

NOTE: "FAIR" INDICATES FEW OR NO CLOUDS BELOW 12000 FEET WITH NO
SIGNIFICANT WEATHER AND/OR OBSTRUCTIONS TO VISIBILITY.

MTZ001>007-043-281900-
WEST OF THE DIVIDE

CITY           SKY/WX    TMP DP  RH WIND       PRES   REMARKS
KALISPELL      CLOUDY    44  33  65 S9        30.19R
MISSOULA       CLOUDY    44  30  57 CALM      30.25S
BUTTE          MOSUNNY   40  16  37 VRB3G18   30.18S
MULLAN PASS    LGT SNOW  28  27  96 SW7       30.16S FOG     WCI  21
ANACONDA         N/A     43  16  33 W14G23    30.18R
DEER LODGE       N/A     43  19  39 SW6G16    30.21S
EUREKA           N/A     45  30  57 SE8       30.17R
HAMILTON         N/A     46  19  34 SE6       30.24S
PLAINS           N/A     44  36  73 CALM      30.22S
RONAN            N/A     46  29  52 SE7       30.23F
$$

MTZ008-052>055-281900-
SOUTHWEST MONTANA

CITY           SKY/WX    TMP DP  RH WIND       PRES   REMARKS
BOZEMAN        SUNNY     45  21  38 W6        30.18S
DILLON         PTSUNNY   42  21  43 CALM      30.16F
W YELLOWSTONE  SUNNY     34  18  51 CALM      30.15S
ENNIS          PTSUNNY   41  21  45 VRB6      30.22S
THREE FORKS      N/A     46  46 100 CALM      30.15S
TWIN BRIDGES     N/A     44  18  35 MISG      30.15S
$$

MTZ009-010-012-014-046-048-049-054-281900-
EAST SLOPES AND CENTRAL MONTANA

CITY           SKY/WX    TMP DP  RH WIND       PRES   REMARKS
CUT BANK       MOSUNNY   48  23  37 W26G36    30.04F
GREAT FALLS    MOSUNNY   49  23  36 SW17      30.10F
MALMSTROM AFB  CLOUDY    48  23  37 SW16G31   30.11F
HELENA         PTSUNNY   48  20  32 W15G29    30.17S
BOWMANS CRNR     N/A     45  17  32 W16       30.09F
CHOTEAU          N/A     50  19  29 W13G18    30.08F
CONRAD           N/A     50  28  42 SE2       30.07F
POWER            N/A     48  19  32 SW17G24   30.07F
RAYNESFORD     PTSUNNY   46  26  45 W13G26    30.11
$$

MTZ011-013-016-021-045-047-050-051-281900-
NORTH CENTRAL MONTANA

CITY           SKY/WX    TMP DP  RH WIND       PRES   REMARKS
HAVRE          SUNNY     54  26  34 SW17      30.07F
LEWISTOWN      SUNNY     48  21  34 W14G20    30.11F
N BAR RANCH      N/A     48  21  34 NW14G20   30.13S
CHINOOK          N/A     54  23  30 W14       30.07F
DENTON           N/A     48  19  31 W9        30.07
FORT BENTON      N/A     52  21  30 MISG      30.11F
WINIFRED         N/A     50  21  31 W8        30.09F
$$

MTZ017>020-022>027-061-062-281900-
NORTHEAST MONTANA

CITY           SKY/WX    TMP DP  RH WIND       PRES   REMARKS
GLASGOW        CLOUDY    41  35  79 S3        30.09F
JORDAN           N/A     49  32  52 W9        30.09
SIDNEY         PTSUNNY   45  39  79 NW9       30.09S
WOLF POINT     CLOUDY    43  36  76 CALM      30.10F
MALTA          SUNNY     54  28  37 W13       30.07F
PLENTYWOOD       N/A     39  37  93 CALM      30.08F
POPLAR           N/A     39  37  93 CALM      30.11F
SCOBEY           N/A     40  33  76 CALM      30.05F
$$

MTZ028>42-056>058-281900-
SOUTHCENTRAL AND SOUTHEAST MONTANA

CITY           SKY/WX    TMP DP  RH WIND       PRES   REMARKS
BAKER          PTSUNNY   55  36  48 SE9       30.06S
BILLINGS       CLOUDY    49  31  49 CALM      30.14S
LIVINGSTON     PTSUNNY   48  23  37 W20G25    30.14F
MILES CITY     PTSUNNY   50  32  50 NW18      30.09R
BIG TIMBER     SUNNY     46  23  39 W23       30.16R
EKALAKA          N/A     53  34  48 N3        30.03R
FORSYTH          N/A     43  43 100 W7        30.13R
HARLOWTON        N/A     48  20  32 W24G31    30.12
LAUREL           N/A     49  28  44 W1        30.11F
$$

REGIONAL REPORTS...DAKOTAS

CITY           SKY/WX    TMP DP  RH WIND       PRES   REMARKS
WILLISTON      CLOUDY    47  38  71 S6        30.09S
MINOT          CLOUDY    43  38  82 SE8       30.12F
DICKINSON      CLOUDY    55  33  43 SE14      30.05F
BEACH            N/A     55  34  44 S10       30.09S
TIOGA          PTSUNNY   43  43 100 SE9       30.10S
WATFORD CITY     N/A     54  37  54 S13       30.06F
BISMARCK       PTSUNNY   50  38  63 E5        30.14S
GRAND FORKS    PTSUNNY   49  39  68 N6        30.20S
FARGO          CLOUDY    49  42  77 NE5       30.18S
BUFFALO SD       N/A     57  40  52 SE10      29.98S
RAPID CITY     LGT RAIN  42  39  89 NE5       30.04R
$$

REGIONAL REPORTS...WYOMING/IDAHO/WASHINGTON

CITY           SKY/WX    TMP DP  RH WIND       PRES   REMARKS
GILLETTE       CLOUDY    42  37  82 NW21G28   30.06R
SHERIDAN       LGT RAIN  40  36  86 NW15      30.14F
BUFFALO WY     CLOUDY    42  35  76 N20G35    30.10R
CODY           MOSUNNY   44  33  65 N14G20    30.13F
YELLOWSTONE LA   N/A     31  20  63 VRB5      30.14S
IDAHO FALLS    MOSUNNY   43  28  55 VRB3      30.18S
SALMON         MOSUNNY   45  25  45 NE6       30.21R
BOISE          SUNNY     48  32  53 NW12      30.29R
SPOKANE        CLOUDY    42  35  76 SW12      30.23S
$$

REGIONAL REPORTS...ALBERTA

CITY           SKY/WX    TMP DP  RH WIND       PRES   REMARKS
EDMONTON       FOG       34  34 100 NE2       29.89S VSB 1/2
CALGARY        PTSUNNY   48  16  27 SW12G17   29.91S
LETHBRIDGE     PTSUNNY   52  23  32 W25G32    29.98F
MEDICINE HAT   MOSUNNY   55  25  30 W15       29.98F
WATERTON GATE    N/A     41  25  52 SW17G28     N/A
MILK RIVER       N/A     54  21  28 W15G21      N/A
$$

REGIONAL REPORTS...SASKATCHEWAN

CITY           SKY/WX    TMP DP  RH WIND       PRES   REMARKS
SWIFT CURRENT  SUNNY     52  32  46 SW15G21   29.97F
REGINA         CLOUDY    37  34  87 SE13      30.10S WCI  29
CYPRESS HILLS    N/A     46  25  42 W7          N/A
VAL MARIE        N/A     54  28  37 W14         N/A
ROCKGLEN         N/A     43  39  87 SW9         N/A
ASSINIBOIA       N/A     36  34  93 SE7         N/A  WCI  30
$$




USA.gov is the U.S. government's official web portal to all federal, state and local government web resources and services.